STARLINK-1677, 46576

Orbit data source: Space-Track

STARLINK-1677, 46576 is a payload satellite owned by SpaceX/Seattle (US) in LEO that was launched on Tue, 06 Oct 2020 UTC via an FALCON 9 launch vehicle from the Air Force Eastern Test Range (AFETR). Payload-class satellites include a variety of spacecraft equipped with specific instruments for various scientific and technological missions. These include communications satellites like Starlink; space stations such as the ISS; scientific satellites like the Hubble; Earth observation satellites from companies like Planet Labs, Umbra, and HawkEye 360; GPS; miniature CubeSats for education and research; and military/defense satellites.

Loading next visibility...
Identifier
46576, 2020-070AW
Orbit
LEO
Country
Flag of USUS
Related business
Manufacturer
SpaceX/Seattle
Mission
Partially operational Commercial Communications
Bus & Motor
STARLINK, Unknown motor
Mass
260 kg wet, ~248 kg dry
Launch date (UTC)
2020-10-06 (5 years ago)
Launch vehicle
FALCON 9
Launch site
Air Force Eastern Test Range (AFETR)
Object type
Payload
Rocket body
Debris
Shape & HBR
Box + 1 Pan, 10.1 m
Radar Cross Section
13.562 m², Large (>1 m²)

Expand to show TLE details & history
Last TLE update: 11 hours ago

TLE from 11 hours ago
0 STARLINK-1677
1 46576U 20070AW  25349.00004630  .00096395  00000-0  24113-2 0  9998
2 46576  53.0480 170.7969 0009496 149.8243  69.9707 15.39301505  5823
Epoch: 2025-12-15T00:00Z
TLE epoch observation values (Epoch: 2025-12-15T00:00:04.000Z)
Latitude
-31.04333°
Longitude
-66.36451°
Altitude
455.495 km
Speed
7.64 km/s
True Right ascension
01h 10m 13s
True Declination
-30° 53' 06"
Sunlit
Object was in daylight at epoch
Visualization orbit readout
Latitude
Unknown
Longitude
Unknown
Altitude
Unknown
Speed
Unknown
Apparent Right ascension
Unknown
Apparent Declination
Unknown
Sunlit
N/A
Visualization observer readout
Local Sidereal Time
09:10:59
Azimuth
Unknown
Elevation
Unknown
Doppler factor
Unknown
Orbital elements
Apogee altitude
454.932 km
Perigee altitude
441.967 km
Semi-major axis
6,826.586 km
Eccentricity
0.00095
Inclination
53.048°
RAAN
170.7969°
Arg. of periapsis
149.8243°
True anomaly
70.07298°
Mean anomaly
69.9707°
Eccentric anomaly
70.02183°
Mean motion
3.84802 °/min
Orbital period
93.55 mins
BSTAR
0.0024113
Loading maneuver chart data...
Computing Atmospheric mass density...

Documentation

Showing up to 5 results
|